Starlink 32022

operational
NORAD ID: 60149 Int'l Des: 2024-120 Owner: SPXS Country: US Constellation: starlink
LEOCIRCULAR

关于 Starlink 32022

正在加载描述...

实时位置

正在加载3D地球...

即将过境

高度历史

Altitude vs Time

uPlot chart will show altitude changes over time

两行轨道根数

1 60149U 24120Q 25305.39161891 .00006465 00000-0 23037-3 0 9991
2 60149 53.1606 195.8210 0001360 80.5212 279.5943 15.30176609 76816
Epoch: Nov 1, 2025 • Age: 24 hours

当前状态

高度 475.2 km
速度 7.63 km/s
星下点 14.07°N, 174.17°E
发射日期 Jun 27, 2024
运行时间 1.3 years
类型 internet

技术详情

分类 Payload
质量 730.00 kg
干质量 700.00 kg
总质量 730.00 kg
长度 0.30 m
直径 4.10 m
跨度 29.00 m
形状 Box + pan
制造商 SPXS
平台类型 Starlink V2M
阶段状态 In Orbit
所有者/国家 SPXS/US

大型星座

Loading constellations...